Карточка аэропорта UUBW

Внимание!
Информация на этой странице в стадии наполнения.
Если вы не увидели какой-то информации, или заметили неточность - пожалуйста сообщите нам!
Спасибо!
Команда RU-STAFF
Название аэропортаРаменское
Название аэропорта (англ.)Ramenskoye
Превышение1325 ft. (403.9 m.)
Координаты55°33.168', 38°8.9820000000002'
Высота перехода10000 ft
Эшелон переходаQNH>=1013hPa:FL110; QNH<1013hPa:FL120; QNH<977hPa:FL130
Коды ответчика
Зона ОрВДМосква РПИ (UUWV)
Данные METARUUBW 070700Z 11005MPS CAVOK M12/M15 Q1029 R30/810250 NOSIG
Проноз погоды (TAF)UUBW 070454Z 0706/0806 12005MPS 9999 SCT020 TXM07/0711Z TNM13/0706Z TEMPO 0707/0721 15008G13MPS TEMPO 0721/0806 15008G13MPS 2100 -SHSN BLSN SCT007 BKN012CB
NOTAMshow/hide NOTAM
AWOS   TABLE

Информация о ВПП

ВПП Длина ВПП (м.) Покрытие Курс ВПП Частота ILS
124600Цементобетон121 
304600Цементобетон301 

Диспетчерские позиции


Сценарии

Сценарий
Нет результатов.


Спутниковое изображение